Tracking 31027 objects as of 19-Jul-2025
HD Live streaming from Space Station
objects crossing your sky now

DELTA 1 DEB

Track DELTA 1 DEB now!
10-day predictions


NORAD ID: 21287
Int'l Code: 1975-052Y
Perigee: 1,101.1 km
Apogee: 1,298.5 km
Inclination: 99.7 °
Period: 109.3 minutes
Semi major axis: 7570 km
RCS: 0.2374 m2 (medium)
Launch date: June 12, 1975
Source: United States (US)
Launch site: AIR FORCE WESTERN TEST RANGE (AFWTR)

Note: This is SATELLITE DEBRIS
Your satellite tracking list
FENGYUN 1C DEB
Track 1 satellite(s)




NASA's NSSDC Master Catalog

Two Line Element Set (TLE):
1 21287U 75052Y   25199.41370773  .00000011  00000-0  12511-3 0  9992
2 21287  99.6870   5.8598 0130365 319.9954  67.6884 13.17934582645573
Source of the keplerian elements: AFSPC